1514577600.18,17302,5.75,72108.8,-12.59,-13.07,-13.01,0,*6E
1514577601.4,17303,5.75,72112.8,-12.59,-13.07,-13.15,0,*6A
1514577602.66,17304,5.75,72112.3,-12.57,-13.11,-13.01,0,*61
1514577603.88,17305,5.75,72114.3,-12.59,-13.07,-13.15,0,*6C
1514577605.1,17306,5.75,72110.8,-12.59,-13.07,-13.15,0,*6F
1514577606.31,17307,5.75,72110.3,-12.59,-13.15,-13.07,0,*6E
1514577607.53,17308,5.75,72118.3,-12.59,-13.07,-13.15,0,*61
1514577608.75,17309,5.75,72114.3,-12.59,-13.19,-13.07,0,*6C
1514577609.99,17310,5.75,72116.0,-12.59,-13.15,-13.01,0,*6E
1514577611.23,17311,5.75,72118.5,-12.59,-13.07,-13.01,0,*6C
1514577612.44,17312,5.69,72114.0,-12.59,-13.07,-13.07,0,*69
1514577613.71,17313,5.69,72114.0,-12.59,-13.01,-13.01,0,*68
1514577614.93,17314,5.75,72114.3,-12.59,-13.07,-13.07,0,*6F
1514577616.19,17315,5.75,72114.3,-12.57,-13.11,-13.01,0,*61
1514577617.41,17316,5.69,72114.5,-12.59,-13.07,-13.07,0,*6D
1514577618.62,17317,5.69,72112.5,-12.59,-13.15,-13.15,0,*6C
1514577619.84,17318,5.75,72118.0,-12.59,-13.19,-13.07,0,*6C
1514577621.08,17319,5.75,72118.8,-12.59,-13.07,-13.01,0,*64
1514577622.35,17320,5.69,72112.5,-12.59,-13.01,-13.01,0,*68
1514577623.57,17321,5.75,72116.8,-12.59,-13.15,-13.15,0,*69
1514577624.78,17322,5.75,72116.3,-12.59,-13.15,-13.15,0,*6A
1514577625.99,17323,5.75,72116.5,-12.59,-13.15,-13.15,0,*6B
1514577627.23,17324,5.69,72118.3,-12.59,-13.07,-13.01,0,*6A
1514577628.45,17325,5.75,72120.0,-12.59,-13.07,-13.07,0,*6D
1514577629.69,17326,5.75,72120.0,-12.59,-13.07,-13.01,0,*68
1514577630.91,17327,5.75,72120.3,-12.63,-13.07,-13.07,0,*66
1514577632.13,17328,5.75,72120.8,-12.59,-13.07,-13.07,0,*60
1514577633.35,17329,5.75,72120.3,-12.59,-13.07,-13.07,0,*61
1514577634.58,17330,5.75,72122.5,-12.59,-13.15,-13.01,0,*6C
1514577635.8,17331,5.75,72122.8,-12.59,-13.07,-13.07,0,*68
1514577637.09,17332,5.69,72122.5,-12.57,-13.01,-13.01,0,*65
1514577638.36,17333,5.75,72126.5,-12.57,-13.01,-12.97,0,*6A
1514577639.6,17334,5.75,72126.8,-12.57,-13.11,-12.97,0,*6C
1514577640.82,17335,5.69,72122.8,-12.59,-13.15,-13.07,0,*6F
1514577642.03,17336,5.75,72122.8,-12.59,-13.07,-13.15,0,*6C
1514577643.27,17337,5.75,72126.0,-12.59,-13.15,-13.01,0,*6B
1514577644.49,17338,5.75,72124.0,-12.59,-13.07,-13.07,0,*61
1514577645.71,17339,5.75,72122.8,-12.59,-13.15,-13.19,0,*6C
1514577647.0,17340,5.75,72126.0,-12.57,-13.01,-13.01,0,*60
1514577648.24,17341,5.75,72126.0,-12.59,-13.15,-13.01,0,*6A
1514577649.53,17342,5.75,72126.0,-12.57,-13.01,-13.01,0,*62
1514577650.77,17343,5.75,72126.3,-12.57,-13.11,-12.97,0,*6C
1514577651.99,17344,5.75,72122.5,-12.59,-13.07,-13.15,0,*69
1514577653.23,17345,5.75,72124.0,-12.59,-13.11,-13.01,0,*6A
1514577654.47,17346,5.75,72120.5,-12.59,-13.15,-13.01,0,*6D
1514577655.68,17347,5.75,72120.8,-12.59,-13.15,-13.07,0,*6A
1514577656.89,17348,5.75,72124.3,-12.59,-13.15,-13.07,0,*65
1514577658.11,17349,5.75,72120.8,-12.59,-13.07,-13.07,0,*67
1514577659.33,17350,5.75,72122.3,-12.59,-13.15,-13.07,0,*6C
1514577660.54,17351,5.75,72122.0,-12.59,-13.07,-13.07,0,*6E
1514577661.78,17352,5.75,72124.3,-12.59,-13.15,-13.01,0,*68
1514577662.99,17353,5.69,72120.0,-12.59,-13.15,-13.07,0,*6F
1514577664.21,17354,5.75,72124.8,-12.59,-13.15,-13.07,0,*68
1514577665.5,17355,5.75,72126.8,-12.57,-13.01,-13.01,0,*64
1514577666.74,17356,5.69,72122.5,-12.59,-13.15,-13.01,0,*6C
1514577667.97,17357,5.75,72128.3,-12.59,-13.19,-13.19,0,*68
1514577669.23,17358,5.69,72124.3,-12.57,-13.01,-13.07,0,*6F
1514577670.45,17359,5.75,72128.5,-12.59,-13.07,-13.15,0,*65
1514577671.69,17360,5.75,72126.0,-12.59,-13.07,-13.01,0,*6A
1514577672.9,17361,5.75,72126.8,-12.59,-13.15,-13.07,0,*6E
1514577674.12,17362,5.69,72126.8,-12.59,-13.07,-13.07,0,*6E
1514577675.36,17363,5.75,72130.8,-12.59,-13.01,-13.07,0,*69
1514577676.58,17364,5.75,72128.5,-12.59,-13.07,-13.07,0,*68
1514577677.8,17365,5.75,72128.5,-12.59,-13.15,-13.07,0,*6A
1514577679.02,17366,5.75,72128.8,-12.59,-13.07,-13.19,0,*65
1514577680.26,17367,5.75,72128.8,-12.59,-13.07,-13.01,0,*6D
1514577681.48,17368,5.75,72132.8,-12.59,-13.07,-13.07,0,*64
1514577682.7,17369,5.75,72128.3,-12.59,-13.15,-13.07,0,*66
1514577683.91,17370,5.75,72128.3,-12.59,-13.15,-13.07,0,*6E
1514577685.15,17371,5.69,72124.8,-12.59,-13.01,-13.07,0,*6A
1514577686.39,17372,5.75,72124.8,-12.59,-13.07,-13.01,0,*69
1514577687.66,17373,5.69,72126.8,-12.57,-13.01,-13.15,0,*65
1514577688.95,17374,5.75,72128.0,-12.57,-13.01,-13.01,0,*67
1514577690.17,17375,5.69,72122.3,-12.59,-13.07,-13.15,0,*6B
1514577691.45,17376,5.69,72120.0,-12.57,-13.01,-13.01,0,*65
1514577692.67,17377,5.75,72118.8,-12.59,-13.07,-13.07,0,*6A
1514577693.92,17378,5.75,72118.8,-12.59,-13.01,-13.07,0,*63
1514577695.18,17379,5.75,72120.8,-12.57,-13.01,-13.15,0,*6F
1514577696.39,17380,5.69,72116.0,-12.59,-13.15,-13.07,0,*61
1514577697.66,17381,5.69,72118.3,-12.57,-13.11,-13.01,0,*6C
1514577698.87,17382,5.75,72120.5,-12.59,-13.15,-13.15,0,*60
1514577700.1,17383,5.69,72118.3,-12.59,-13.07,-13.19,0,*6E
1514577701.31,17384,5.69,72118.0,-12.59,-13.07,-13.07,0,*66
1514577702.53,17385,5.75,72122.5,-12.59,-13.15,-13.07,0,*64
1514577703.75,17386,5.69,72122.8,-12.59,-13.07,-13.07,0,*64
1514577704.99,17387,5.69,72122.8,-12.57,-13.11,-12.97,0,*64
1514577706.23,17388,5.69,72120.5,-12.59,-13.07,-13.01,0,*6C
1514577707.45,17389,5.75,72126.0,-12.59,-13.07,-12.97,0,*63
1514577708.66,17390,5.69,72122.8,-12.59,-13.15,-13.15,0,*63
1514577709.9,17391,5.69,72120.0,-12.59,-13.15,-13.01,0,*67
1514577711.11,17392,5.69,72122.0,-12.59,-13.15,-13.15,0,*61
1514577712.33,17393,5.75,72120.3,-12.59,-13.07,-13.07,0,*60
1514577713.59,17394,5.75,72120.0,-12.57,-13.11,-13.01,0,*68
1514577714.81,17395,5.69,72118.8,-12.59,-13.15,-13.15,0,*66
1514577716.02,17396,5.75,72122.3,-12.59,-13.15,-13.07,0,*66
1514577717.31,17397,5.75,72122.8,-12.57,-13.01,-13.01,0,*6A
1514577718.6,17398,5.69,72120.3,-12.57,-13.01,-13.01,0,*65
1514577719.82,17399,5.69,72116.8,-12.59,-13.07,-13.07,0,*6A
1514577721.06,17400,5.75,72120.3,-12.59,-13.07,-13.01,0,*6B
1514577722.35,17401,5.69,72118.5,-12.57,-13.01,-13.01,0,*62
1514577723.59,17402,5.69,72118.3,-12.59,-12.97,-13.01,0,*61
1514577724.81,17403,5.69,72116.5,-12.59,-13.07,-13.11,0,*69
1514577726.05,17404,5.75,72120.3,-12.59,-13.15,-13.01,0,*6C
1514577727.26,17405,5.69,72118.3,-12.59,-13.15,-13.15,0,*68
1514577728.48,17406,5.69,72118.8,-12.59,-13.07,-13.07,0,*6B
1514577729.77,17407,5.75,72116.0,-12.57,-13.01,-13.01,0,*64
1514577730.98,17408,5.69,72114.3,-12.59,-13.07,-13.15,0,*66
1514577732.2,17409,5.69,72118.5,-12.59,-13.07,-13.07,0,*64
1514577733.49,17410,5.75,72118.5,-12.57,-13.01,-13.01,0,*62
1514577734.75,17411,5.75,72118.5,-12.57,-13.11,-13.01,0,*62
1514577736.04,17412,5.69,72116.5,-12.57,-13.01,-13.01,0,*60
1514577737.25,17413,5.75,72122.3,-12.59,-13.15,-13.07,0,*6C
1514577738.52,17414,5.69,72120.3,-12.57,-13.11,-13.01,0,*67
1514577739.73,17415,5.75,72122.8,-12.59,-13.15,-13.07,0,*6A
1514577740.95,17416,5.75,72122.3,-12.59,-13.19,-13.07,0,*65
1514577742.17,17417,5.69,72120.8,-12.59,-13.07,-13.07,0,*6B
1514577743.38,17418,5.69,72122.0,-12.59,-13.15,-13.07,0,*67
1514577744.6,17419,5.75,72120.8,-12.59,-13.15,-13.15,0,*65
1514577745.81,17420,5.75,72120.3,-12.59,-13.15,-13.07,0,*6C
1514577747.03,17421,5.75,72122.3,-12.59,-13.07,-13.07,0,*6E
1514577748.32,17422,5.69,72118.5,-12.57,-13.01,-13.01,0,*63
1514577749.59,17423,5.75,72118.8,-12.57,-13.01,-12.97,0,*6C
1514577750.8,17424,5.69,72118.8,-12.59,-13.07,-13.07,0,*6B
1514577752.02,17425,5.75,72122.0,-12.59,-13.15,-13.07,0,*69
1514577753.28,17426,5.69,72118.3,-12.57,-13.11,-13.01,0,*66
1514577754.52,17427,5.69,72116.0,-12.57,-13.11,-13.11,0,*66
1514577755.73,17428,5.75,72116.0,-12.59,-13.15,-13.15,0,*67
1514577756.96,17429,5.75,72116.3,-12.59,-13.15,-13.19,0,*6A
1514577758.17,17430,5.75,72116.0,-12.59,-13.07,-13.07,0,*6E
1514577759.39,17431,5.75,72116.8,-12.59,-13.15,-13.07,0,*6C
1514577760.6,17432,5.69,72114.5,-12.59,-13.07,-13.07,0,*6C
1514577761.87,17433,5.69,72112.8,-12.57,-13.11,-13.01,0,*62
1514577763.08,17434,5.69,72114.8,-12.59,-13.15,-13.07,0,*69
1514577764.32,17435,5.75,72116.8,-12.57,-13.11,-13.11,0,*65
1514577765.61,17436,5.69,72116.5,-12.57,-13.01,-13.01,0,*66
1514577766.88,17437,5.75,72118.8,-12.57,-13.01,-13.11,0,*66
1514577768.12,17438,5.75,72116.0,-12.59,-13.01,-13.07,0,*60
1514577769.34,17439,5.69,72112.5,-12.59,-13.07,-13.15,0,*64
1514577770.58,17440,5.69,72112.8,-12.59,-13.01,-13.07,0,*6F
1514577771.85,17441,5.75,72122.0,-12.57,-13.01,-12.97,0,*68
1514577773.12,17442,5.69,72116.5,-12.57,-13.11,-13.01,0,*64
1514577774.33,17443,5.69,72118.3,-12.59,-13.07,-13.15,0,*69
1514577775.56,17444,5.69,72118.5,-12.59,-13.15,-13.19,0,*61
1514577776.77,17445,5.75,72118.5,-12.59,-13.15,-13.15,0,*6C
1514577778.01,17446,5.75,72120.5,-12.57,-13.11,-13.11,0,*61
1514577779.22,17447,5.75,72120.8,-12.59,-13.15,-13.07,0,*6D
1514577780.44,17448,5.69,72118.3,-12.59,-13.07,-13.15,0,*62
1514577781.65,17449,5.75,72120.5,-12.59,-13.15,-13.07,0,*63
1514577782.89,17450,5.75,72120.5,-12.55,-13.11,-13.01,0,*65
1514577784.11,17451,5.69,72120.8,-12.59,-13.07,-13.07,0,*69
1514577785.33,17452,5.69,72116.3,-12.59,-13.07,-13.07,0,*6A
1514577786.57,17453,5.75,72122.0,-12.59,-13.01,-13.15,0,*6E
1514577787.78,17454,5.69,72116.3,-12.59,-13.15,-13.15,0,*6C
1514577789.01,17455,5.75,72120.0,-12.59,-13.19,-13.07,0,*62
1514577790.22,17456,5.75,72120.3,-12.59,-13.15,-13.15,0,*6E
1514577791.51,17457,5.75,72122.8,-12.57,-13.01,-13.01,0,*61
1514577792.73,17458,5.75,72120.3,-12.59,-13.15,-12.97,0,*6B
1514577793.97,17459,5.75,72120.0,-12.59,-13.15,-13.01,0,*64
1514577795.18,17460,5.75,72118.3,-12.59,-13.07,-13.07,0,*6B
1514577796.45,17461,5.75,72120.3,-12.57,-13.01,-13.11,0,*65
1514577797.71,17462,5.75,72122.3,-12.57,-13.11,-13.01,0,*66
1514577798.96,17463,5.75,72116.0,-12.59,-13.19,-13.01,0,*61
1514577800.18,17464,5.69,72118.8,-12.59,-13.15,-13.19,0,*63
1514577801.4,17465,5.69,72116.3,-12.59,-13.07,-13.15,0,*6D
1514577802.64,17466,5.69,72116.5,-12.57,-13.11,-13.11,0,*63
1514577803.88,17467,5.69,72116.3,-12.57,-13.11,-13.11,0,*62
1514577805.09,17468,5.69,72114.3,-12.59,-13.15,-13.07,0,*60
1514577806.31,17469,5.75,72116.0,-12.59,-13.07,-13.07,0,*62
1514577807.6,17470,5.69,72118.0,-12.57,-13.01,-13.01,0,*64
1514577808.86,17471,5.69,72112.5,-12.57,-13.11,-13.01,0,*64
1514577810.1,17472,5.69,72116.8,-12.59,-13.01,-13.07,0,*6E
1514577811.35,17473,5.75,72114.3,-12.57,-13.11,-13.23,0,*66
1514577812.56,17474,5.69,72114.5,-12.59,-13.15,-13.15,0,*6E
1514577813.8,17475,5.69,72116.3,-12.59,-13.01,-13.07,0,*69
1514577815.05,17476,5.69,72118.0,-12.59,-13.01,-13.07,0,*6A
1514577816.27,17477,5.69,72116.8,-12.59,-13.07,-13.07,0,*6D
1514577817.53,17478,5.69,72114.8,-12.59,-13.01,-13.01,0,*62
1514577818.76,17479,5.69,72118.0,-12.59,-12.97,-12.97,0,*63
1514577819.97,17480,5.69,72118.0,-12.59,-13.15,-13.07,0,*66
1514577821.21,17481,5.69,72112.5,-12.57,-13.11,-13.07,0,*6D
1514577822.45,17482,5.69,72118.5,-12.59,-13.15,-13.01,0,*62
1514577823.66,17483,5.69,72116.3,-12.63,-13.15,-13.07,0,*6C
1514577824.89,17484,5.69,72112.3,-12.59,-13.19,-13.15,0,*6D
1514577826.12,17485,5.69,72110.5,-12.59,-13.15,-13.01,0,*65
1514577827.34,17486,5.69,72110.5,-12.59,-13.15,-13.07,0,*60
1514577828.63,17487,5.69,72110.0,-12.57,-13.01,-13.01,0,*6C
1514577829.84,17488,5.69,72114.3,-12.59,-13.15,-13.07,0,*6E
1514577831.08,17489,5.69,72110.0,-12.57,-13.15,-13.11,0,*66
1514577832.29,17490,5.69,72114.3,-12.59,-13.07,-13.07,0,*64
1514577833.51,17491,5.69,72110.3,-12.59,-13.07,-13.15,0,*66
1514577834.72,17492,5.69,72112.0,-12.59,-13.15,-13.15,0,*66
1514577835.94,17493,5.69,72110.0,-12.59,-13.15,-13.07,0,*64
1514577837.2,17494,5.69,72112.0,-12.57,-13.01,-13.15,0,*6B
1514577838.44,17495,5.75,72114.8,-12.59,-13.15,-13.01,0,*64
1514577839.66,17496,5.69,72114.0,-12.59,-12.93,-13.07,0,*6E
1514577840.9,17497,5.75,72118.3,-12.59,-13.07,-13.01,0,*65
1514577842.12,17498,5.75,72116.5,-12.59,-13.19,-13.07,0,*63
1514577843.41,17499,5.69,72112.0,-12.57,-13.01,-13.01,0,*63
1514577844.68,17500,5.69,72112.5,-12.57,-13.01,-13.07,0,*64
1514577845.92,17501,5.69,72112.3,-12.57,-13.11,-13.11,0,*63
1514577847.16,17502,5.69,72112.5,-12.59,-13.01,-13.07,0,*68
1514577848.38,17503,5.75,72112.3,-12.59,-13.07,-13.15,0,*6C
1514577849.62,17504,5.75,72114.0,-12.59,-13.15,-13.01,0,*6D
1514577850.83,17505,5.69,72114.3,-12.59,-13.07,-13.07,0,*69
1514577852.05,17506,5.69,72116.8,-12.59,-13.07,-13.07,0,*6A
1514577853.31,17507,5.69,72116.3,-12.57,-13.11,-13.01,0,*64
1514577854.53,17508,5.69,72112.5,-12.59,-13.07,-13.07,0,*64
1514577855.77,17509,5.69,72114.5,-12.59,-13.15,-13.01,0,*60
1514577856.98,17510,5.69,72116.5,-12.59,-13.15,-13.15,0,*6D
1514577858.22,17511,5.69,72118.8,-12.57,-13.11,-13.11,0,*62
1514577859.51,17512,5.69,72116.5,-12.57,-13.01,-13.01,0,*61
1514577860.73,17513,5.75,72118.5,-12.59,-13.19,-13.15,0,*62
1514577861.95,17514,5.69,72116.5,-12.59,-13.07,-13.07,0,*69
1514577863.17,17515,5.69,72116.3,-12.59,-13.15,-13.19,0,*64
1514577864.39,17516,5.69,72112.8,-12.59,-13.07,-13.15,0,*68
1514577865.61,17517,5.69,72120.0,-12.59,-13.07,-13.15,0,*69
1514577866.82,17518,5.69,72118.3,-12.59,-13.15,-13.15,0,*65
1514577868.08,17519,5.69,72114.0,-12.57,-13.01,-13.15,0,*6F
1514577869.37,17520,5.75,72122.0,-12.57,-13.01,-13.01,0,*60
1514577870.59,17521,5.69,72122.3,-12.59,-13.07,-13.07,0,*6F
1514577871.81,17522,5.69,72122.5,-12.59,-13.07,-13.07,0,*6C
1514577873.03,17523,5.69,72120.0,-12.59,-13.07,-13.15,0,*6E
1514577874.24,17524,5.69,72122.5,-12.59,-13.07,-13.15,0,*69
1514577875.46,17525,5.69,72120.5,-12.59,-13.15,-13.07,0,*68
1514577876.74,17526,5.69,72122.0,-12.57,-13.01,-13.01,0,*66
1514577877.96,17527,5.69,72122.3,-12.59,-13.15,-13.15,0,*69
1514577879.2,17528,5.69,72120.5,-12.59,-13.07,-13.01,0,*60
1514577880.42,17529,5.69,72122.0,-12.59,-13.07,-13.07,0,*67
1514577881.63,17530,5.69,72118.8,-12.59,-13.07,-13.15,0,*6C
1514577882.89,17531,5.69,72122.3,-12.57,-13.11,-13.01,0,*61
1514577884.18,17532,5.69,72122.8,-12.57,-13.01,-13.01,0,*63
1514577885.4,17533,5.69,72122.8,-12.59,-13.15,-13.07,0,*6F
1514577886.62,17534,5.69,72118.5,-12.59,-13.07,-13.19,0,*64
1514577887.89,17535,5.69,72122.0,-12.57,-13.11,-13.01,0,*65
1514577889.1,17536,5.69,72122.5,-12.59,-13.15,-13.07,0,*6A
1514577890.31,17537,5.69,72126.5,-12.59,-13.15,-13.07,0,*6B
1514577891.56,17538,5.69,72122.3,-12.59,-13.19,-13.01,0,*6E
1514577892.78,17539,5.69,72124.8,-12.59,-13.07,-13.07,0,*66
1514577894.0,17540,5.69,72126.3,-12.59,-13.11,-13.11,0,*68
1514577895.22,17541,5.69,72122.8,-12.59,-13.11,-13.11,0,*69
1514577896.43,17542,5.69,72124.3,-12.59,-13.15,-13.15,0,*6A
1514577897.65,17543,5.69,72126.0,-12.59,-13.11,-13.11,0,*6B
1514577898.86,17544,5.69,72124.0,-12.59,-13.15,-13.15,0,*6C
1514577900.09,17545,5.69,72126.8,-12.59,-13.11,-12.97,0,*62
1514577901.35,17546,5.69,72124.5,-12.57,-13.11,-13.01,0,*61
1514577902.64,17547,5.69,72124.0,-12.57,-13.01,-13.01,0,*61
1514577903.88,17548,5.69,72126.5,-12.59,-13.01,-13.07,0,*66
1514577905.12,17549,5.69,72124.0,-12.57,-13.15,-13.15,0,*6F
1514577906.35,17550,5.69,72122.5,-12.59,-13.15,-13.01,0,*6C
1514577907.57,17551,5.69,72124.3,-12.59,-13.15,-13.07,0,*6B
1514577908.78,17552,5.69,72126.0,-12.59,-13.07,-13.15,0,*68
1514577910.0,17553,5.69,72126.5,-12.59,-13.07,-13.15,0,*69
1514577911.22,17554,5.69,72126.3,-12.59,-13.15,-13.11,0,*69
1514577912.46,17555,5.69,72122.5,-12.57,-13.11,-12.97,0,*6D
1514577913.73,17556,5.69,72118.5,-12.57,-13.01,-13.11,0,*60
1514577915.0,17557,5.75,72124.3,-12.57,-13.01,-13.11,0,*61
1514577916.26,17558,5.69,72120.5,-12.57,-13.11,-13.01,0,*6E
1514577917.47,17559,5.69,72122.0,-12.59,-13.07,-13.07,0,*60
1514577918.7,17560,5.69,72122.3,-12.59,-13.19,-13.15,0,*66
1514577919.91,17561,5.69,72118.5,-12.59,-13.07,-13.15,0,*68
1514577921.13,17562,5.69,72120.5,-12.59,-13.07,-13.15,0,*6B
1514577922.37,17563,5.69,72120.3,-12.57,-12.97,-13.11,0,*68
1514577923.62,17564,5.69,72122.5,-12.59,-13.01,-13.15,0,*6B
1514577924.84,17565,5.69,72120.5,-12.59,-13.19,-13.07,0,*60
1514577926.05,17566,5.69,72120.0,-12.59,-13.15,-13.07,0,*6F
1514577927.3,17567,5.69,72122.8,-12.59,-13.01,-13.07,0,*6B
1514577928.51,17568,5.69,72120.8,-12.59,-13.15,-13.15,0,*62
1514577929.73,17569,5.69,72122.8,-12.59,-13.07,-13.07,0,*63
1514577930.99,17570,5.69,72120.8,-12.57,-12.97,-13.01,0,*6B
1514577932.21,17571,5.69,72120.3,-12.59,-13.07,-13.07,0,*6A
1514577933.42,17572,5.69,72118.0,-12.59,-13.07,-13.07,0,*69
1514577934.66,17573,5.69,72116.5,-12.57,-13.15,-12.97,0,*6D
1514577935.88,17574,5.69,72116.3,-12.59,-13.07,-13.15,0,*6C
1514577937.1,17575,5.69,72112.8,-12.59,-13.07,-13.07,0,*6E
1514577938.34,17576,5.69,72110.0,-12.59,-13.07,-13.01,0,*6B
1514577939.58,17577,5.69,72110.3,-12.57,-13.11,-13.11,0,*62
1514577940.79,17578,5.69,72114.8,-12.59,-13.15,-13.15,0,*63
1514577942.04,17579,5.75,72122.5,-12.57,-12.97,-13.11,0,*63
1514577943.27,17580,5.69,72112.8,-12.57,-13.15,-13.11,0,*6E
1514577944.49,17581,5.69,72118.8,-12.59,-13.07,-13.07,0,*65
1514577945.71,17582,5.69,72116.5,-12.59,-13.07,-13.15,0,*65
1514577946.92,17583,5.69,72118.0,-12.59,-13.15,-13.15,0,*67
1514577948.14,17584,5.69,72116.8,-12.59,-13.07,-13.15,0,*63
1514577949.36,17585,5.69,72120.0,-12.59,-13.07,-13.15,0,*62
1514577950.6,17586,5.75,72124.0,-12.57,-13.11,-13.11,0,*6C
1514577951.81,17587,5.69,72116.0,-12.59,-13.15,-13.07,0,*60
1514577953.05,17588,5.69,72118.8,-12.57,-13.11,-13.11,0,*62
1514577954.26,17589,5.69,72116.3,-12.59,-13.15,-13.15,0,*6D
1514577955.48,17590,5.69,72112.5,-12.59,-13.07,-13.15,0,*66
1514577956.69,17591,5.69,72114.3,-12.59,-13.15,-13.07,0,*67
1514577957.96,17592,5.69,72116.0,-12.57,-13.01,-13.11,0,*68
1514577959.18,17593,5.69,72118.3,-12.59,-13.15,-13.07,0,*65
1514577960.41,17594,5.69,72118.5,-12.59,-13.15,-13.01,0,*64
1514577961.65,17595,5.69,72120.3,-12.59,-13.15,-13.01,0,*65
1514577962.94,17596,5.69,72120.3,-12.57,-13.01,-13.01,0,*6D
1514577964.16,17597,5.69,72122.0,-12.59,-13.07,-13.15,0,*61
1514577965.37,17598,5.69,72120.0,-12.59,-13.15,-13.15,0,*6D
1514577966.59,17599,5.75,72122.0,-12.59,-13.07,-13.07,0,*6C
1514577967.8,17600,5.75,72122.5,-12.59,-13.15,-13.07,0,*6C
1514577969.02,17601,5.69,72116.0,-12.59,-13.15,-13.15,0,*6E
1514577970.25,17602,5.69,72120.0,-12.59,-13.15,-13.01,0,*68
1514577971.47,17603,5.69,72120.0,-12.59,-13.07,-13.07,0,*6C
1514577972.71,17604,5.69,72120.0,-12.59,-13.15,-13.01,0,*6E
1514577973.92,17605,5.69,72118.5,-12.59,-13.15,-13.07,0,*69
1514577975.18,17606,5.69,72116.0,-12.57,-13.11,-13.01,0,*66
1514577976.47,17607,5.69,72114.5,-12.57,-13.01,-13.01,0,*66
1514577977.69,17608,5.69,72116.8,-12.59,-13.07,-13.07,0,*67
1514577978.9,17609,5.69,72116.0,-12.59,-13.15,-13.07,0,*65
1514577980.17,17610,5.69,72120.3,-12.57,-13.11,-13.01,0,*61
1514577981.38,17611,5.69,72120.8,-12.59,-13.15,-13.07,0,*6C
1514577982.62,17612,5.69,72126.0,-12.57,-13.11,-13.11,0,*62
1514577983.84,17613,5.69,72128.5,-12.59,-13.07,-13.15,0,*6E
1514577985.06,17614,5.69,72126.5,-12.59,-13.07,-13.15,0,*69
1514577986.3,17615,5.75,72120.5,-12.59,-13.01,-13.07,0,*6D
1514577987.51,17616,5.69,72118.5,-12.59,-13.15,-13.07,0,*6B
1514577988.73,17617,5.75,72120.0,-12.59,-13.19,-13.15,0,*65
1514577989.95,17618,5.69,72114.8,-12.59,-13.15,-12.97,0,*6D
1514577991.17,17619,5.69,72112.5,-12.59,-13.07,-13.07,0,*67
1514577992.39,17620,5.69,72112.8,-12.59,-13.11,-13.11,0,*6D
1514577993.61,17621,5.69,72112.0,-12.59,-13.07,-13.15,0,*6F
1514577994.88,17622,5.69,72110.3,-12.57,-13.01,-13.11,0,*60
1514577996.12,17623,5.69,72112.3,-12.59,-13.01,-13.15,0,*6B
1514577997.33,17624,5.69,72114.0,-12.59,-13.15,-13.15,0,*69
1514577998.55,17625,5.69,72114.5,-12.59,-13.15,-13.15,0,*68
1514577999.76,17626,5.69,72112.5,-12.59,-13.07,-13.15,0,*68
1514578001.01,17627,5.69,72108.5,-12.57,-13.11,-12.97,0,*6B
1514578002.22,17628,5.69,72108.5,-12.59,-13.15,-13.15,0,*65
1514578003.44,17629,5.69,72108.3,-12.59,-13.07,-13.07,0,*64
1514578004.7,17630,5.69,72112.5,-12.57,-13.11,-13.01,0,*63
1514578005.94,17631,5.69,72104.8,-12.57,-13.11,-13.11,0,*63
1514578007.15,17632,5.69,72110.8,-12.59,-13.15,-13.15,0,*6E
1514578008.37,17633,5.69,72108.5,-12.59,-13.15,-13.15,0,*6F
1514578009.59,17634,5.69,72112.8,-12.59,-13.11,-12.97,0,*67
1514578010.83,17635,5.69,72110.8,-12.59,-13.01,-13.07,0,*6F
1514578012.1,17636,5.69,72112.3,-12.57,-13.01,-13.11,0,*65
1514578013.32,17637,5.69,72112.8,-12.59,-13.07,-13.15,0,*68
1514578014.55,17638,5.69,72112.0,-12.59,-13.15,-13.01,0,*61
1514578015.8,17639,5.69,72114.0,-12.57,-13.11,-12.97,0,*64
1514578017.02,17640,5.69,72110.3,-12.59,-13.19,-13.15,0,*67
1514578018.26,17641,5.69,72106.5,-12.57,-13.11,-12.97,0,*6B
1514578019.48,17642,5.69,72110.0,-12.59,-13.07,-13.15,0,*6A
1514578020.74,17643,5.69,72106.0,-12.57,-13.01,-13.07,0,*60
1514578021.96,17644,5.69,72112.3,-12.59,-13.15,-13.07,0,*6C
1514578023.18,17645,5.69,72112.8,-12.59,-13.15,-13.19,0,*62
1514578024.42,17646,5.69,72112.8,-12.57,-13.11,-13.11,0,*63
1514578025.63,17647,5.75,72118.3,-12.59,-13.15,-13.15,0,*6C
1514578026.85,17648,5.69,72118.0,-12.59,-13.15,-13.15,0,*63
1514578028.06,17649,5.69,72116.5,-12.59,-13.15,-13.07,0,*61
1514578029.33,17650,5.69,72114.5,-12.57,-13.01,-13.11,0,*65
1514578030.54,17651,5.69,72114.8,-12.59,-13.15,-13.15,0,*6B
1514578031.78,17652,5.69,72110.8,-12.57,-13.11,-13.15,0,*62
1514578033.0,17653,5.69,72112.5,-12.59,-13.15,-13.19,0,*65
1514578034.22,17654,5.69,72114.5,-12.59,-13.15,-13.15,0,*6E
1514578035.43,17655,5.69,72114.0,-12.59,-13.15,-13.07,0,*6C
1514578036.65,17656,5.69,72116.5,-12.59,-13.15,-13.15,0,*6C
1514578037.86,17657,5.69,72118.3,-12.59,-13.07,-13.07,0,*6D
1514578039.08,17658,5.69,72112.0,-12.59,-13.15,-13.07,0,*61
1514578040.29,17659,5.69,72116.5,-12.59,-13.15,-13.15,0,*63
1514578041.51,17660,5.69,72112.3,-12.59,-13.19,-13.07,0,*66
1514578042.72,17661,5.69,72120.3,-12.59,-13.15,-13.15,0,*68
1514578043.96,17662,5.75,72118.8,-12.57,-13.11,-13.11,0,*65
1514578045.18,17663,5.69,72116.0,-12.59,-13.15,-13.15,0,*6A
1514578046.42,17664,5.69,72118.0,-12.57,-13.11,-13.15,0,*67
1514578047.64,17665,5.69,72116.0,-12.59,-13.19,-13.15,0,*60
1514578048.85,17666,5.69,72118.0,-12.59,-13.15,-13.15,0,*6F
1514578050.14,17667,5.75,72118.8,-12.57,-13.01,-13.01,0,*60
1514578051.37,17668,5.69,72116.5,-12.59,-13.19,-13.19,0,*61
1514578052.58,17669,5.69,72114.3,-12.59,-13.15,-13.07,0,*63
1514578053.8,17670,5.69,72118.8,-12.59,-13.15,-13.15,0,*68
1514578055.01,17671,5.69,72120.8,-12.59,-13.15,-13.15,0,*69
1514578056.24,17672,5.69,72116.8,-12.59,-13.07,-13.19,0,*65
1514578057.47,17673,5.69,72118.8,-12.59,-13.19,-13.19,0,*6B
1514578058.69,17674,5.69,72118.8,-12.59,-13.15,-13.19,0,*60
1514578059.95,17675,5.69,72120.0,-12.57,-13.15,-13.01,0,*66
1514578061.16,17676,5.69,72118.5,-12.59,-13.15,-13.07,0,*6D
1514578062.38,17677,5.69,72118.5,-12.59,-13.15,-13.07,0,*6C
1514578063.59,17678,5.69,72118.0,-12.59,-13.15,-13.15,0,*60
1514578064.81,17679,5.69,72118.0,-12.59,-13.19,-13.15,0,*6D
1514578066.03,17680,5.69,72120.5,-12.59,-13.15,-13.07,0,*64
1514578067.25,17681,5.69,72118.3,-12.59,-13.19,-13.15,0,*6A
1514578068.46,17682,5.69,72118.0,-12.59,-13.07,-13.15,0,*66
1514578069.68,17683,5.69,72116.0,-12.59,-13.15,-13.15,0,*64
1514578070.89,17684,5.69,72116.8,-12.59,-13.15,-13.15,0,*63
1514578072.11,17685,5.69,72118.3,-12.59,-13.15,-13.15,0,*62
1514578073.32,17686,5.69,72118.3,-12.59,-13.07,-13.15,0,*62
1514578074.58,17687,5.69,72114.8,-12.57,-13.11,-13.01,0,*6F
1514578075.8,17688,5.69,72116.3,-12.59,-13.15,-13.07,0,*6C
1514578077.01,17689,5.69,72118.0,-12.59,-13.15,-13.15,0,*6E
1514578078.23,17690,5.69,72116.8,-12.59,-13.15,-13.19,0,*6A
1514578079.45,17691,5.69,72116.8,-12.63,-13.15,-13.07,0,*6D
1514578080.66,17692,5.69,72116.3,-12.59,-13.15,-13.15,0,*64
1514578081.93,17693,5.69,72114.3,-12.57,-13.01,-13.11,0,*6A
1514578083.14,17694,5.69,72118.3,-12.59,-13.15,-13.15,0,*62
1514578084.37,17695,5.69,72112.0,-12.59,-13.15,-13.19,0,*6F
1514578085.58,17696,5.69,72114.5,-12.63,-13.15,-13.07,0,*6A
1514578086.8,17697,5.69,72116.0,-12.59,-13.15,-13.15,0,*61
1514578088.01,17698,5.69,72118.3,-12.59,-13.15,-13.15,0,*6E
1514578089.22,17699,5.69,72112.5,-12.59,-13.15,-13.07,0,*6C
1514578090.47,17700,5.69,72112.3,-12.59,-13.01,-13.07,0,*68
1514578091.68,17701,5.69,72114.5,-12.59,-13.07,-13.15,0,*6C